www.pogodaiklimat.ru

Погода и климат >> Архив погоды >> Норвегия >> Несбен-Тодокк


ПОГОДА в Несбен-Тодокке

  • Прогноз погоды в Несбен-Тодокке
  • Монитор погоды в Несбен-Тодокке

АРХИВ ПОГОДЫ в Несбен-Тодокке

Время (UTC), дата Ветер
(напр.,м/с)
 
Видим.   Явления Облачность Т
(С)
Тd
(С)
f
(%)
Тe
(С)
Тes
(С)
Комфортность P
(гПа)
Po
(гПа)
Тmin
(С)
Tmax
(С)
R
(мм)
R24
(мм)
S
(см)
19 18.08 В 1
{4}
н/о н/о +12.8 +8.5 75 +13 +13 1000.0 980.3
20 18.08 В 2
{5}
н/о н/о +13.8 +8.6 71 +13 +13 999.7 980.1
21 18.08 В 2
{4}
н/о н/о +12.9 +8.8 76 +12 +12 999.9 980.2
22 18.08 СВ 1
{4}
н/о н/о +11.4 +9.2 86 +11 +11 999.8 980.0
23 18.08 С 1
{2}
н/о н/о +11.7 +9.6 87 +12 +12 999.8 980.0
00 19.08 С 1
{5}
н/о н/о +10.9 +9.5 91 +11 +11 999.6 979.8
01 19.08 З 1
{2}
н/о н/о +10.7 +9.5 92 +10 +10 999.5 979.7
02 19.08 штиль 0
{2}
н/о н/о +10.5 +9.3 92 +10 +10 999.4 979.6
03 19.08 штиль 0
{1}
н/о н/о +9.1 +7.9 92 +8 +8 999.5 979.6
04 19.08 С 1
{2}
н/о н/о +8.7 +7.6 93 +8 +8 1000.0 980.0
05 19.08 СВ 1
{3}
н/о н/о +8.7 +7.6 93 +8 +8 1000.4 980.4
06 19.08 штиль 0
{3}
1500 м местами туман поземный 9/8 300 м
[St]
+9.9 +8.8 93 +9 +9 1000.6 980.7 +8.4 +14.8 1
07 19.08 В 2
{4}
н/о н/о +11.5 +9.8 89 +10 +10 1000.4 980.6
08 19.08 В 3
{6}
н/о н/о +13.5 +9.4 76 +12 +12 1000.0 980.3
09 19.08 ЮВ 4
{7}
н/о н/о +16.1 +9.3 64 +15 +15 999.6 980.1
10 19.08 ЮВ 6
{9}
н/о н/о +18.3 +8.6 53 +18 +18 999.0 979.7
11 19.08 ЮВ 3
{11}
н/о н/о +17.1 +9.3 60 +17 +17 999.6 980.2
12 19.08 СВ 1
{11}
30 км слаб. ливневой дождь 9/9 300 м
[Cb cap]
+14.8 +11.8 82 +15 +16 1000.5 980.9 0.7
13 19.08 Ю 2
{4}
н/о н/о +16.5 +11.4 72 +17 +17 1000.6 981.1
14 19.08 СЗ 1
{5}
н/о н/о +18.3 +11.1 63 +20 +20 1001.2 981.8
15 19.08 З 2
{7}
>70 км 6/6 1000 м
[Cu Sc]
+19.2 +7.6 47 +20 +22 1001.5 982.2
16 19.08 СЗ 3
{7}
н/о н/о +18.2 +5.4 43 +18 +18 1002.3 982.9
17 19.08 СЗ 3
{9}
н/о н/о +17.7 +6.0 46 +18 +18 1003.0 983.6
18 19.08 С 1
{9}
>70 км 4/3 1000 м
[Cu hum Ci fib]
+15.1 +8.8 66 +16 +16 1003.6 984.0 +9.9 +20.2 1
19 19.08 В 1
{3}
н/о н/о +12.9 +9.2 78 +13 +13 1004.6 984.8
20 19.08 С 1
{2}
н/о н/о +11.5 +8.5 82 +11 +11 1005.5 985.6
21 19.08 С 1
{3}
н/о н/о +10.2 +7.8 85 +10 +10 1006.4 986.4
22 19.08 С 1
{3}
н/о н/о +9.4 +7.0 85 +9 +9 1007.0 986.9
23 19.08 СВ 1
{2}
н/о н/о +8.2 +6.5 89 +7 +7 1007.6 987.4
00 20.08 ЮВ 1
{3}
н/о н/о +7.5 +6.1 91 +7 +7 1007.8 987.6
01 20.08 С 1
{2}
н/о н/о +6.5 +5.3 92 +5 +5 1008.3 988.0
02 20.08 ЮВ 1
{2}
н/о н/о +6.1 +4.9 92 +5 +5 1008.7 988.4
03 20.08 штиль 0
{1}
н/о н/о +6.4 +5.4 93 +5 +5 1008.9 988.6
04 20.08 СЗ 1
{2}
н/о н/о +6.1 +5.1 93 +5 +5 1009.6 989.2
05 20.08 В 1
{2}
н/о н/о +6.5 +5.5 93 +5 +5 1009.8 989.5
06 20.08 ЮВ 1
{2}
65 км 4/0 2000 м
[Ac lent Ci sp]
+7.4 +6.5 94 +6 +8 1010.1 989.8 +5.7 +15.1 0.2
07 20.08 ЮВ 1
{3}
н/о н/о +10.5 +7.6 82 +10 +10 1010.1 990.0
08 20.08 СЗ 1
{2}
н/о н/о +11.7 +7.8 77 +12 +12 1010.0 990.0
09 20.08 ЮВ 1
{2}
н/о н/о +13.3 +9.0 75 +14 +14 1010.2 990.3
10 20.08 З 1
{3}
н/о н/о +14.8 +9.2 69 +15 +15 1009.9 990.1
11 20.08 С 1
{2}
н/о н/о +17.1 +8.5 57 +18 +18 1009.7 990.1
12 20.08 В 2
{5}
4500 м слаб. ливневой дождь 9/6 300 м
[Cb calv As op]
+14.8 +11.9 83 +14 +16 1010.3 990.5 0.9
13 20.08 Ю 2
{5}
н/о н/о +18.8 +9.9 56 +20 +20 1010.1 990.6
14 20.08 ЮЗ 2
{6}
н/о н/о +19.7 +7.8 46 +21 +21 комфорт 1010.0 990.6
15 20.08 З 2
{9}
>70 км 8/5 1000 м
[Sc Ac lent Cc]
+19.8 +5.5 39 +21 +23 комфорт 1010.4 991.0
16 20.08 СЗ 2
{8}
н/о н/о +20.0 +6.4 41 +21 +21 комфорт 1010.6 991.2
17 20.08 СЗ 1
{4}
н/о н/о +18.6 +6.8 46 +20 +20 1011.5 992.0
18 20.08 С 1
{9}
>70 км 8/5 1000 м
[Sc Cs]
+16.8 +9.0 60 +18 +18 1012.5 992.8 +7.4 +21.3 0.8
19 20.08 В 1
{4}
н/о н/о +14.3 +9.3 72 +15 +15 1013.4 993.6
20 20.08 СВ 1
{3}
н/о н/о +12.6 +8.5 76 +13 +13 1014.5 994.5
21 20.08 СЗ 1
{5}
н/о н/о +13.3 +7.1 66 +14 +14 1015.1 995.1
22 20.08 С 2
{5}
н/о н/о +12.6 +6.9 68 +12 +12 1015.7 995.7
23 20.08 С 1
{5}
н/о н/о +11.9 +6.8 71 +12 +12 1016.3 996.2
00 21.08 СВ 1
{5}
н/о н/о +9.9 +5.7 75 +10 +10 1017.0 996.8
01 21.08 СВ 1
{2}
н/о н/о +8.8 +5.7 81 +8 +8 1017.7 997.4
02 21.08 ЮВ 1
{3}
н/о н/о +6.8 +4.8 87 +6 +6 1018.7 998.2
03 21.08 штиль 0
{1}
н/о н/о +6.4 +4.9 90 +5 +5 1019.1 998.6
04 21.08 штиль 0
{1}
н/о н/о +5.8 +4.5 91 +5 +5 1019.8 999.2
05 21.08 Ю 1
{1}
н/о н/о +4.8 +3.5 91 +3 +3 1020.3 999.6
06 21.08 штиль 0
{3}
>70 км ясно +6.3 +5.3 93 +5 +7 1020.7 1000.1 +4.7 +16.9 0.2
07 21.08 ЮВ 1
{2}
н/о н/о +10.0 +5.6 74 +10 +10 1020.5 1000.2
08 21.08 В 1
{3}
н/о н/о +13.0 +5.4 60 +13 +13 1020.3 1000.2
09 21.08 штиль 0
{2}
н/о н/о +16.2 +6.1 51 +16 +16 1019.6 999.7
10 21.08 ЮВ 1
{3}
н/о н/о +18.2 +5.4 43 +19 +19 1019.0 999.3
11 21.08 С 3
{6}
н/о н/о +18.2 +2.5 35 +18 +18 1019.0 999.3
12 21.08 ЮВ 2
{6}
>70 км 3/0 2000 м
[Ac trans Cc]
+19.4 +3.2 34 +20 +29 1018.6 999.0
13 21.08 СВ 1
{4}
н/о н/о +21.2 +2.0 28 +21 +21 комфорт 1018.4 998.9
14 21.08 ЮВ 1
{4}
н/о н/о +20.9 +3.6 32 +23 +23 комфорт 1018.3 998.8
15 21.08 Ю 1
{3}
>70 км 4/3 1000 м
[Cu med, cong Cc]
+21.3 +3.5 31 +21 +25 комфорт 1018.2 998.7
16 21.08 СЗ 3
{4}
н/о н/о +19.5 +4.8 38 +20 +20 1018.3 998.7
17 21.08 СЗ 3
{6}
н/о н/о +19.0 +3.6 36 +20 +20 1018.7 999.0
18 21.08 СЗ 1
{6}
>70 км 3/3 1000 м
[Cu hum]
+16.4 +5.7 49 +17 +17 1019.1 999.3 +6.3 +21.4
19 21.08 С 2
{4}
н/о н/о +15.1 +5.6 53 +15 +15 1019.7 999.8
20 21.08 С 2
{4}
н/о н/о +13.0 +5.2 59 +12 +12 1020.7 1000.6
21 21.08 С 2
{4}
н/о н/о +11.5 +4.7 63 +11 +11 1021.5 1001.3
22 21.08 С 2
{3}
н/о н/о +9.9 +5.1 72 +9 +9 1021.8 1001.5
23 21.08 С 1
{3}
н/о н/о +8.2 +4.6 78 +8 +8 1022.3 1001.8
00 22.08 С 1
{4}
н/о н/о +7.0 +4.3 83 +6 +6 1022.6 1002.0
01 22.08 С 1
{3}
н/о н/о +5.9 +3.9 87 +5 +5 1022.7 1002.1
02 22.08 штиль 0
{2}
н/о н/о +4.8 +3.3 90 +4 +4 1022.9 1002.2
03 22.08 штиль 0
{1}
н/о н/о +4.5 +3.2 91 +3 +3 1022.5 1001.8
04 22.08 ЮВ 1
{1}
н/о н/о +4.9 +3.6 91 +4 +4 1022.0 1001.3
05 22.08 штиль 0
{2}
н/о н/о +5.4 +4.1 91 +4 +4 1021.9 1001.2
06 22.08 штиль 0
{3}
65 км 10/9 1000 м
[Sc Ac As]
+6.0 +3.8 86 +5 +5 1021.5 1000.9 +4.4 +16.4
07 22.08 В 1
{1}
н/о н/о +7.1 +3.9 80 +6 +6 1020.9 1000.4
08 22.08 Ю 1
{2}
н/о н/о +8.3 +4.1 75 +8 +8 1020.2 999.8
09 22.08 штиль 0
{2}
н/о н/о +8.7 +4.5 75 +8 +8 1019.5 999.1
10 22.08 ЮВ 1
{1}
н/о н/о +9.4 +4.8 73 +9 +9 1018.6 998.3
11 22.08
{1}
н/о н/о +10.0 +6.2 77 1017.6 997.4
12 22.08 З 1
{2}
3000 м слаб. дождь 10/8 600 м
[Frnb As op]
+10.2 +7.4 83 +10 +10 1016.8 996.6 0.6
13 22.08 СЗ 1
{2}
н/о н/о +10.7 +8.5 86 +10 +10 1016.4 996.2 0.6
14 22.08 С 1
{1}
н/о н/о +11.2 +9.1 87 +11 +11 1015.9 995.8
15 22.08 ЮЗ 1
{2}
1200 м в посл. час дождь 9/9 300 м
[Frnb]
+12.3 +9.5 83 +12 +13 1015.1 995.1
16 22.08 ЮВ 1
{2}
н/о н/о +13.3 +10.3 82 +13 +13 1014.4 994.5
17 22.08 СЗ 1
{2}
н/о н/о +13.0 +10.2 83 +13 +13 1014.2 994.2
18 22.08 С 1
{2}
26 км местами туман поземный 6/4 600 м
[Cb calv Ci sp]
+12.3 +10.4 88 +12 +12 1014.3 994.3 +6.0 +14.0 2
19 22.08 С 1
{2}
н/о н/о +10.7 +9.3 91 +10 +10 1015.1 995.0
20 22.08 С 1
{2}
н/о н/о +9.1 +8.0 93 +8 +8 1015.7 995.4
21 22.08 СЗ 1
{3}
н/о н/о +8.4 +7.2 92 +8 +8 1016.5 996.2
22 22.08 В 1
{2}
н/о н/о +8.1 +6.9 92 +7 +7 1016.1 995.8
23 22.08 СВ 1
{3}
н/о н/о +7.8 +6.7 93 +7 +7 1016.2 995.8
00 23.08 ЮВ 1
{3}
н/о н/о +7.9 +6.5 91 +7 +7 1015.8 995.4
01 23.08 СВ 1
{3}
н/о н/о +7.9 +6.7 92 +7 +7 1015.4 995.0
02 23.08 СЗ 1
{2}
н/о н/о +7.6 +6.4 92 +7 +7 1015.0 994.6
03 23.08 СЗ 1
{2}
н/о н/о +7.4 +6.2 92 +6 +6 1014.8 994.4
04 23.08 штиль 0
{1}
н/о н/о +7.7 +6.6 93 +7 +7 1014.3 994.0
05 23.08 ЮВ 1
{2}
н/о н/о +8.0 +6.9 93 +7 +7 1014.5 994.2
06 23.08 СВ 1
{3}
55 км 5/5 600 м
[Sc]
+8.1 +7.0 93 +7 +8 1014.6 994.3 +7.3 +12.3 0.2
07 23.08 ЮВ 1
{2}
н/о н/о +9.9 +8.5 91 +9 +9 1014.6 994.4
08 23.08 СВ 1
{2}
н/о н/о +12.1 +9.1 82 +12 +12 1014.4 994.4
09 23.08 Ю 1
{3}
н/о н/о +14.5 +9.5 72 +15 +15 1014.4 994.5
10 23.08 Ю 1
{3}
н/о н/о +16.1 +10.6 70 +17 +17 1014.4 994.6
11 23.08 З 3
{10}
н/о н/о +19.0 +8.7 51 +20 +20 1014.6 995.0
12 23.08 С 5
{10}
>70 км 5/4 1000 м
[Cu Sc Ci fib]
+20.1 +6.1 40 +21 +23 комфорт 1015.2 995.7
13 23.08 С 4
{8}
н/о н/о +19.8 +5.5 39 +20 +20 1016.0 996.5
14 23.08 СЗ 4
{8}
н/о н/о +20.3 +4.0 34 +21 +21 комфорт 1017.0 997.5
15 23.08 СЗ 3
{7}
>70 км 3/3 1000 м
[Cu Sc]
+19.6 +4.5 37 +20 +23 1017.4 997.8
16 23.08 СЗ 3
{6}
н/о н/о +18.6 +5.8 43 +19 +19 1017.8 998.1
17 23.08 ЮВ 1
{4}
н/о н/о +16.9 +10.3 65 +18 +18 1018.2 998.4
18 23.08 штиль 0
{8}
н/о н/о +15.6 +10.2 70 +15 +15 1018.6 998.7 +8.1 +20.7
19 23.08 ЮВ 1
{1}
н/о н/о +14.1 +9.9 76 +14 +14 1019.5 999.5
20 23.08 штиль 0
{1}
н/о н/о +13.3 +9.6 78 +13 +13 1020.4 1000.3
21 23.08 С 1
{2}
н/о н/о +13.0 +10.4 84 +13 +13 1021.0 1000.9
22 23.08 ЮВ 1
{2}
н/о н/о +12.5 +9.9 84 +13 +13 1021.2 1001.1
23 23.08 ЮВ 1
{2}
н/о н/о +11.1 +9.0 87 +11 +11 1021.8 1001.6
00 24.08 С 1
{2}
н/о н/о +10.3 +8.4 88 +10 +10 1022.4 1002.1
01 24.08 С 1
{1}
н/о н/о +9.8 +7.9 88 +9 +9 1023.2 1002.8
02 24.08 СВ 1
{2}
н/о н/о +9.4 +7.9 90 +9 +9 1023.6 1003.2
03 24.08 штиль 0
{1}
н/о н/о +8.8 +7.3 90 +8 +8 1024.1 1003.7
04 24.08 СВ 1
{2}
н/о н/о +8.5 +7.1 91 +8 +8 1024.5 1004.0
05 24.08 штиль 0
{2}
н/о н/о +8.0 +6.8 92 +7 +7 1025.2 1004.7
06 24.08 ЮВ 1
{2}
>70 км 4/0 2000 м
[Ac lent Ci sp]
+9.6 +8.4 92 +9 +10 1025.1 1004.7 +7.8 +15.6
07 24.08 штиль 0
{1}
н/о н/о +12.9 +9.0 77 +12 +12 1024.9 1004.7
08 24.08 Ю 1
{2}
н/о н/о +15.1 +8.6 65 +16 +16 1024.8 1004.8
09 24.08 Ю 1
{2}
н/о н/о +17.1 +8.5 57 +18 +18 1024.6 1004.7
10 24.08 Ю 1
{1}
н/о н/о +17.0 +9.2 60 +18 +18 1024.5 1004.6
11 24.08 СВ 1
{2}
н/о н/о +19.1 +10.7 58 +21 +21 комфорт 1023.9 1004.2
12 24.08 Ю 1
{3}
>70 км 9/6 1000 м
[Sc Ac lent]
+20.1 +11.1 56 +23 +24 комфорт 1023.7 1004.0
13 24.08 штиль 0
{2}
н/о н/о +20.5 +10.6 53 +22 +22 комфорт 1023.3 1003.7
14 24.08 ЮЗ 1
{2}
н/о н/о +21.8 +11.8 53 +24 +24 комфорт 1022.7 1003.2
15 24.08 З 1
{3}
>70 км 10/4 1000 м
[Cu Sc Ac inh Ci sp]
+21.5 +12.6 57 +24 +25 комфорт 1022.5 1002.9
16 24.08 СВ 1
{2}
н/о н/о +19.9 +14.9 73 +23 +23 комфорт 1022.4 1002.7
17 24.08 СЗ 1
{1}
н/о н/о +18.9 +15.2 79 +21 +21 комфорт 1022.5 1002.8
18 24.08 С 1
{3}
>70 км 10/10 1000 м
[Sc]
+17.8 +14.9 83 +19 +19 1022.7 1002.9 +9.6 +22.8
19 24.08 В 1
{3}
н/о н/о +16.8 +15.2 90 +18 +18 1023.2 1003.3
20 24.08 С 1
{2}
н/о н/о +15.8 +14.3 91 +16 +16 1023.5 1003.5 1
21 24.08 штиль 0
{1}
н/о н/о +15.4 +14.1 92 +15 +15 1023.4 1003.4
22 24.08 штиль 0
{1}
н/о н/о +14.8 +13.7 93 +14 +14 1023.5 1003.5
23 24.08 штиль 0
{1}
н/о н/о +14.2 +13.1 93 +14 +14 1023.8 1003.7
00 25.08 штиль 0
{3}
н/о н/о +13.5 +12.4 93 +13 +13 1023.9 1003.8
01 25.08 штиль 0
{1}
н/о н/о +12.6 +11.5 93 +12 +12 1024.0 1003.8
02 25.08
{1}
н/о н/о +12.6 +11.7 94 1023.8 1003.6
03 25.08 штиль 0
{2}
н/о н/о +12.2 +11.1 93 +12 +12 1023.6 1003.4
04 25.08 С 1
{2}
н/о н/о +12.2 +11.3 94 +12 +12 1023.6 1003.4
05 25.08 штиль 0
{1}
н/о н/о +12.5 +11.6 94 +12 +12 1023.6 1003.4
06 25.08 З 1
{2}
2000 м местами туман поземный 10/9 200 м
[St Ac trans]
+13.0 +12.1 94 +13 +13 1023.6 1003.5 +12.0 +17.8 1
07 25.08 штиль 0
{1}
н/о н/о +14.5 +13.4 93 +14 +14 1023.3 1003.3
08 25.08 ЮВ 2
{3}
н/о н/о +16.7 +13.6 82 +17 +17 1022.9 1003.0
09 25.08 ЮВ 1
{4}
н/о н/о +19.5 +14.3 72 +22 +22 комфорт 1022.2 1002.5
10 25.08 В 2
{5}
н/о н/о +21.6 +13.8 61 +24 +24 комфорт 1021.3 1001.8
11 25.08 ЮВ 3
{6}
н/о н/о +21.7 +13.6 60 +24 +24 комфорт 1021.0 1001.5
12 25.08 Ю 2
{6}
>70 км 8/5 600 м
[Cu med, cong Ci sp]
+22.2 +14.1 60 +25 +29 комфорт 1021.1 1001.6
13 25.08 Ю 2
{3}
н/о н/о +23.5 +12.2 49 +25 +25 комфорт 1021.0 1001.6
14 25.08 Ю 2
{4}
н/о н/о +26.0 +7.6 31 +26 +26 жарко 1020.2 1001.0
15 25.08 СЗ 2
{6}
>70 км 8/5 600 м
[Cu med, cong Ci sp]
+25.6 +7.2 31 +26 +27 жарко 1020.2 1001.0
16 25.08 С 1
{5}
н/о н/о +25.8 +7.4 31 +26 +26 жарко 1020.1 1000.9
17 25.08 СЗ 1
{4}
н/о н/о +24.3 +10.6 42 +25 +25 комфорт 1020.2 1000.9
18 25.08 СЗ 1
{6}
>70 км ясно +19.1 +11.7 62 +21 +21 комфорт 1020.9 1001.2 +13.0 +26.5

 

Местоположение метеостанции Несбен-Тодокк (Норвегия): широта 60.57 долгота 9.13 высота над уровнем моря 167 м.

В архиве по умолчанию представлена погода в Несбен-Тодокке за последнюю неделю. Архивные данные за месяц целиком и за предыдущие месяцы, начиная с января 2011 года, Вы можете получить, выбрав интересующий диапазон дат из раскрывающегося списка и нажав кнопку "Ввод!".


*Определитесь, кто Вы:
робот инопланетянин человек

Внимание! Время в таблицах - всемирное. Для получения местного времени необходимо прибавить поправку, которая равна 1 ч.

Смотрите также архив погоды в соседних городах и на ближайших метеорологических станциях:

Погода в Гульсвике (Норвегия) (33 км)
Погода в Гейло аэропорту (Норвегия) (38 км)
Погода в Хемседале II (Норвегия) (44 км)
Погода в Хемседале (Норвегия) (47 км)
Погода в Фагернесе (Норвегия) (47 км)
Погода в Фагернес аэропорту (Норвегия) (50 км)
Погода в Гейло (Норвегия) (51 км)
Погода в Веггли (Норвегия) (58 км)
Погода в Локен и Волбу (Норвегия) (61 км)
Погода в Вест-Торпе (Норвегия) (63 км)

Пояснения к столбцам:

Ветер - указаны скорость ветра в м/с - средняя за 10 мин, порывы в срок и между сроками (в фигурных скобках) и направление, откуда дует ветер: С - северный, СВ - северо-восточный, В - восточный, ЮВ - юго-восточный, Ю - южный, ЮЗ - юго-западный, З - западный, СЗ - северо-западный.
Видимость - горизонтальная дальность видимости в метрах или километрах. При видимости от 1 до 10 км при отсутствии осадков обычно наблюдается дымка, при ухудшении видимости до 1 км и менее - туман. В сухую погоду видимость может ухудшаться дымом, пылью или мглою.
Явления - указаны атмосферные явления, наблюдавшиеся в срок или в последний час перед сроком; фигурными скобками обозначены явления, наблюдавшиеся между сроками (за 1-3 часа до срока); квадратными скобками обозначены град или гололедные отложения с указанием их диаметра в мм.
Облачность - указаны через наклонную черту общая и нижняя облачность в баллах и высота нижней границы облаков в метрах; квадратными скобками обозначены формы облаков: Ci - перистые, Cs - перисто-слоистые, Cc - перисто-кучевые, Ac - высококучевые, As - высокослоистые, Sc - слоисто-кучевые, Ns - слоисто-дождевые, Cu - кучевые, Cb - кучево-дождевые. Подробнее классификацию облаков см. в Атласе облаков (PDF).
T - Температура воздуха - температура, измеренная на высоте 2 м над землей.
Td - Температура точки росы - температура, при понижении до которой содержащийся в воздухе водяной пар достигнет насыщения.
f - Относительная влажность воздуха - влажноcть воздуха, измеренная на высоте 2 м над землей.
Te - Эффективная температура - температура, которую ощущает одетый по сезону человек в тени. Характеристика душности погоды. При расчете учитывается влияние влажности воздуха и скорости ветра на теплоощущения человека.
Tes - Эффективная температура на солнце - температура, которую ощущает человек, с поправкой на солнечный нагрев. Характеристика знойности погоды. Зависит от высоты солнца над горизонтом, облачности и скорости ветра. Ночью, в пасмурную погоду, а также при ветре 12 м/с и более поправка равна нулю.
P - Атмосферное давление - приведенное к уровню моря атмосферное давление.
Po - Атмосферное давление - измеренное на уровне метеостанции атмосферное давление.
Tmin - Минимальная температура - минимум температуры воздуха на высоте 2 м над землей.
Tmax - Максимальная температура - максимум температуры воздуха на высоте 2 м над землей.
R - Количество осадков - Количество выпавших осадков за период времени, мм. При наведении курсора мыши на число - период времени, за который выпало указанное количество осадков.
R24 - Количество осадков - Количество выпавших осадков за 24 часа, мм.
S - Снежный покров - Высота снежного покрова, см. При наведении курсора мыши на число - состояние снежного покрова и степень покрытия местности в баллах.